This is the latest recevied weather packets stored in our database for station/object W5LND-10. If no packets are shown the sender has not sent any weather packets the latest 1 day(s).
| Time | Temp. | Humidity | Pressure | Rain* | Wind** | Luminosity | Snow |
|---|---|---|---|---|---|---|---|
| 1777994470 | 24.44° C | 50% | 1002.8 hPa | 0 mm | 2.24 m/s, 306° | 561 W/m² | - |
| 1777994173 | 24.44° C | 51% | 1002.8 hPa | 0 mm | 2.68 m/s, 313° | 464 W/m² | - |
| 1777993872 | 23.89° C | 53% | 1002.8 hPa | 0 mm | 2.68 m/s, 307° | 417 W/m² | - |
| 1777993570 | 23.89° C | 53% | 1002.8 hPa | 0 mm | 2.68 m/s, 311° | 434 W/m² | - |
| 1777993274 | 23.89° C | 56% | 1002.8 hPa | 0 mm | 2.68 m/s, 306° | 554 W/m² | - |
| 1777992975 | 23.33° C | 58% | 1002.8 hPa | 0 mm | 2.68 m/s, 270° | 482 W/m² | - |
| 1777992671 | 23.33° C | 59% | 1002.7 hPa | 0 mm | 2.68 m/s, 297° | 547 W/m² | - |
| 1777992373 | 23.33° C | 59% | 1002.7 hPa | 0 mm | 3.13 m/s, 293° | 345 W/m² | - |
| 1777992073 | 22.78° C | 60% | 1002.7 hPa | 0 mm | 3.58 m/s, 292° | 533 W/m² | - |
| 1777991770 | 22.78° C | 60% | 1002.6 hPa | 0 mm | 2.68 m/s, 315° | 538 W/m² | - |
| 1777991470 | 22.78° C | 62% | 1002.7 hPa | 0 mm | 2.24 m/s, 331° | 345 W/m² | - |
| 1777991170 | 22.22° C | 63% | 1002.7 hPa | 0 mm | 2.24 m/s, 296° | 353 W/m² | - |
| 1777990871 | 22.22° C | 64% | 1002.5 hPa | 0 mm | 2.68 m/s, 310° | 302 W/m² | - |
| 1777990570 | 21.67° C | 66% | 1002.4 hPa | 0 mm | 2.68 m/s, 290° | 355 W/m² | - |
| 1777990270 | 21.67° C | 67% | 1002.3 hPa | 0 mm | 3.13 m/s, 271° | 359 W/m² | - |
| 1777990183 | 21.11° C | 71% | 1002.1 hPa | 0 mm | 3.58 m/s, 241° | 330 W/m² | - |
| 1777989970 | 21.11° C | 69% | 1002.3 hPa | 0 mm | 3.58 m/s, 254° | 323 W/m² | - |
| 1777989670 | 21.11° C | 71% | 1002.1 hPa | 0 mm | 3.58 m/s, 241° | 330 W/m² | - |
| 1777989370 | 20.56° C | 72% | 1002 hPa | 0 mm | 3.58 m/s, 287° | 336 W/m² | - |
| 1777989072 | 20.56° C | 73% | 1002 hPa | 0 mm | 3.58 m/s, 261° | 244 W/m² | - |
| 1777988770 | 20.56° C | 74% | 1001.9 hPa | 0 mm | 3.58 m/s, 252° | 274 W/m² | - |
| 1777988470 | 20° C | 76% | 1001.8 hPa | 0 mm | 3.13 m/s, 311° | 364 W/m² | - |
| 1777988170 | 20° C | 77% | 1001.8 hPa | 0 mm | 3.58 m/s, 254° | 276 W/m² | - |
| 1777987870 | 20° C | 77% | 1001.7 hPa | 0 mm | 4.47 m/s, 252° | 274 W/m² | - |
| 1777987570 | 19.44° C | 78% | 1001.7 hPa | 0 mm | 4.02 m/s, 251° | 292 W/m² | - |
* Rain latest hour (hover to see other rain measurements)
** Current wind speed in m/s (hover to see current wind gust speed)